TimeMDT,TemperatureF,Dew PointF,Humidity,Sea Level PressureIn,VisibilityMPH,Wind Direction,Wind SpeedMPH,Gust SpeedMPH,PrecipitationIn,Events,Conditions,WindDirDegrees,DateUTC
12:51 AM,60.1,39.9,47,29.78,10.0,NNE,3.5,-,N/A,,Partly Cloudy,30,2013-10-28 06:51:00
1:51 AM,55.9,39.0,53,29.79,10.0,Calm,Calm,-,N/A,,Partly Cloudy,0,2013-10-28 07:51:00
2:51 AM,55.0,39.0,55,29.79,10.0,Calm,Calm,-,N/A,,Partly Cloudy,0,2013-10-28 08:51:00
3:51 AM,52.0,37.9,59,29.78,10.0,East,3.5,-,N/A,,Partly Cloudy,80,2013-10-28 09:51:00
4:51 AM,50.0,37.9,63,29.78,10.0,Calm,Calm,-,N/A,,Clear,0,2013-10-28 10:51:00
5:51 AM,52.0,39.9,63,29.79,10.0,SE,8.1,-,N/A,,Clear,140,2013-10-28 11:51:00
6:51 AM,54.0,42.1,64,29.82,10.0,SE,8.1,-,N/A,,Partly Cloudy,140,2013-10-28 12:51:00
7:51 AM,57.0,42.1,57,29.84,10.0,SSE,5.8,-,N/A,,Scattered Clouds,160,2013-10-28 13:51:00
8:51 AM,66.0,37.9,36,29.85,10.0,SSW,6.9,-,N/A,,Scattered Clouds,200,2013-10-28 14:51:00
9:51 AM,66.9,39.0,36,29.88,10.0,SSE,8.1,-,N/A,,Scattered Clouds,150,2013-10-28 15:51:00
10:51 AM,71.1,37.0,29,29.87,10.0,Variable,5.8,-,N/A,,Scattered Clouds,0,2013-10-28 16:51:00
11:51 AM,75.9,35.1,23,29.84,10.0,SW,11.5,-,N/A,,Scattered Clouds,230,2013-10-28 17:51:00
12:51 PM,77.0,32.0,19,29.81,10.0,WSW,13.8,-,N/A,,Mostly Cloudy,240,2013-10-28 18:51:00
1:51 PM,79.0,27.0,15,29.78,10.0,WSW,17.3,24.2,N/A,,Mostly Cloudy,250,2013-10-28 19:51:00
2:51 PM,77.0,28.0,17,29.78,10.0,SW,12.7,-,N/A,,Mostly Cloudy,220,2013-10-28 20:51:00
3:51 PM,77.0,27.0,16,29.76,10.0,South,13.8,-,N/A,,Mostly Cloudy,190,2013-10-28 21:51:00
4:51 PM,79.0,19.9,11,29.77,10.0,SW,16.1,24.2,N/A,,Mostly Cloudy,230,2013-10-28 22:51:00
5:51 PM,75.9,21.9,13,29.78,10.0,South,11.5,-,N/A,,Overcast,190,2013-10-28 23:51:00
6:51 PM,73.0,24.1,16,29.80,10.0,South,8.1,-,N/A,,Mostly Cloudy,170,2013-10-29 00:51:00
7:51 PM,72.0,24.1,17,29.82,10.0,SSW,8.1,-,N/A,,Mostly Cloudy,210,2013-10-29 01:51:00
8:51 PM,73.0,21.0,14,29.80,10.0,WSW,11.5,-,N/A,,Mostly Cloudy,240,2013-10-29 02:51:00
9:51 PM,72.0,19.9,14,29.82,10.0,SW,12.7,-,N/A,,Mostly Cloudy,230,2013-10-29 03:51:00
10:51 PM,72.0,19.0,13,29.82,10.0,SW,12.7,23.0,N/A,,Overcast,230,2013-10-29 04:51:00
11:51 PM,70.0,21.9,16,29.82,10.0,WSW,10.4,-,N/A,,Overcast,240,2013-10-29 05:51:00